This is the latest recevied weather packets stored in our database for station/object WP3OF-1. If no packets are shown the sender has not sent any weather packets the latest 10 day(s).
| Time | Temp. | Humidity | Pressure | Rain* | Wind** | Luminosity | Snow |
|---|---|---|---|---|---|---|---|
| 1778104756 | - | - | - | 0 mm | - | - | - |
| 1778104453 | - | - | - | 0 mm | - | - | - |
| 1778104149 | - | - | - | 0 mm | - | - | - |
| 1778103846 | 26.67° C | 81% | 1017.3 hPa | 0 mm | - | - | - |
| 1778103543 | 26.67° C | 81% | 1017.1 hPa | 0 mm | - | - | - |
| 1778103241 | 27.22° C | 81% | 1017.1 hPa | 0 mm | - | - | - |
| 1778102938 | 27.22° C | 80% | 1017 hPa | 0 mm | - | - | - |
| 1778102634 | 27.22° C | 80% | 1016.9 hPa | 0 mm | - | - | - |
| 1778102328 | 27.22° C | 80% | 1016.7 hPa | 0 mm | - | - | - |
| 1778102025 | 27.78° C | 79% | 1016.9 hPa | 0 mm | - | - | - |
| 1778101722 | 27.78° C | 78% | 1016.9 hPa | 0 mm | - | - | - |
| 1778101419 | 27.78° C | 78% | 1016.9 hPa | 0 mm | - | - | - |
| 1778101116 | 27.78° C | 79% | 1017 hPa | 0 mm | - | - | - |
| 1778100811 | 27.78° C | 78% | 1016.7 hPa | 0 mm | - | - | - |
| 1778100503 | 28.33° C | 78% | 1016.8 hPa | 0 mm | - | - | - |
| 1778100201 | 27.78° C | 78% | 1016.8 hPa | 0 mm | - | - | - |
| 1778099898 | 27.78° C | 78% | 1016.9 hPa | 0 mm | - | - | - |
| 1778099595 | 27.78° C | 77% | 1016.7 hPa | 0 mm | - | - | - |
| 1778099292 | 27.78° C | 78% | 1017 hPa | 0 mm | - | - | - |
| 1778098989 | 28.33° C | 75% | 1016.6 hPa | 0 mm | - | - | - |
| 1778098685 | 27.78° C | 77% | 1016.8 hPa | 0 mm | - | - | - |
| 1778098383 | 28.33° C | 75% | 1016.8 hPa | 0 mm | - | - | - |
| 1778098080 | 28.33° C | 76% | 1016.7 hPa | 0 mm | - | - | - |
| 1778097776 | 28.33° C | 74% | 1017 hPa | 0 mm | - | - | - |
| 1778097472 | 28.33° C | 74% | 1017 hPa | 0 mm | - | - | - |
* Rain latest hour (hover to see other rain measurements)
** Current wind speed in m/s (hover to see current wind gust speed)